Redding, CA

5:45 AM PST on November 18, 2019 (GMT -0800)
Redding Municipal

Weather History for KRDD - October, 2019

Change the Weather History Date:

Wednesday, October 23, 2019

  Actual Average Record
Temperature  
Mean Temperature 78 °F -  
Max Temperature 86 °F 74 °F 93 °F (1959)
Min Temperature 69 °F 47 °F 37 °F (1991)
Degree Days  
Heating Degree Days 0    
Cooling Degree Days 13    
Growing Degree Days 28 (Base 50)    
Moisture  
Dew Point 30 °F    
Average Humidity 25    
Maximum Humidity 41    
Minimum Humidity 9    
Precipitation  
Precipitation 0.00 in 0.08 in 1.44 in (1989)
Month to date precipitation 0.09 1.29  
Year to date precipitation 32.66 23.06  
Sea Level Pressure  
Sea Level Pressure 30.07 in    
Wind  
Wind Speed 17 mph (North)    
Max Wind Speed 35 mph    
Max Gust Speed 44 mph    
Visibility 10 miles    
Events      
T = Trace of Precipitation, MM = Missing Value Source: NWS Daily Summary

Daily Weather History Graph

Daily Weather History Graph

Search for Another Location

Airport or City:

Astronomy

Oct. 23, 2019 Rise Set
Actual Time 7:28 AM PDT 6:17 PM PDT
Civil Twilight 7:00 AM PDT 6:45 PM PDT
Nautical Twilight 6:29 AM PDT 7:17 PM PDT
Astronomical Twilight 5:57 AM PDT 7:48 PM PDT
Moon 1:52 AM PDT (10/23) 4:13 PM PDT (10/23)
Length of Visible Light 11h 44m
Length of Day
10h 48m
Waning Crescent, 25% of the Moon is Illuminated
Oct 23
Waning Crescent
Oct 27
New
Nov 4
First Quarter
Nov 12
Full
Nov 19
Last Quarter

Hourly Weather History & Observations

Time (PDT) Temp. Dew Point Humidity Pressure Visibility Wind Dir Wind Speed Gust Speed Precip Events Conditions
12:53 AM 73.0 °F 48.0 °F 41% 30.09 in 10.0 mi NNW 10.4 mph - N/A   Clear
1:53 AM 73.0 °F 48.0 °F 41% 30.09 in 10.0 mi North 10.4 mph 21.9 mph N/A   Clear
2:53 AM 73.0 °F 46.9 °F 39% 30.08 in 10.0 mi North 18.4 mph 25.3 mph N/A   Clear
3:53 AM 72.0 °F 46.0 °F 40% 30.08 in 10.0 mi NNW 13.8 mph 20.7 mph N/A   Clear
4:53 AM 72.0 °F 45.0 °F 38% 30.07 in 10.0 mi North 17.3 mph 26.5 mph N/A   Clear
5:53 AM 71.1 °F 42.1 °F 35% 30.07 in 10.0 mi North 15.0 mph - N/A   Clear
6:53 AM 70.0 °F 39.9 °F 33% 30.08 in 10.0 mi North 17.3 mph - N/A   Clear
7:53 AM 69.1 °F 37.9 °F 32% 30.09 in 10.0 mi North 18.4 mph 25.3 mph N/A   Clear
8:53 AM 72.0 °F 30.0 °F 21% 30.09 in 10.0 mi North 25.3 mph 35.7 mph N/A   Clear
9:53 AM 73.9 °F 24.1 °F 16% 30.12 in 10.0 mi North 27.6 mph 38.0 mph N/A   Clear
10:53 AM 75.9 °F 21.9 °F 13% 30.11 in 10.0 mi North 28.8 mph 38.0 mph N/A   Clear
11:53 AM 80.1 °F 19.9 °F 11% 30.09 in 10.0 mi North 24.2 mph 33.4 mph N/A   Clear
12:53 PM 81.0 °F 19.0 °F 10% 30.07 in 10.0 mi North 24.2 mph 35.7 mph N/A   Clear
1:53 PM 84.0 °F 19.9 °F 9% 30.05 in 10.0 mi NNE 25.3 mph 33.4 mph N/A   Clear
2:53 PM 84.9 °F 21.0 °F 10% 30.02 in 10.0 mi North 26.5 mph 36.8 mph N/A   Clear
3:53 PM 84.9 °F 21.0 °F 10% 30.01 in 10.0 mi North 19.6 mph 35.7 mph N/A   Clear
4:53 PM 84.0 °F 21.9 °F 10% 30.01 in 10.0 mi North 20.7 mph 31.1 mph N/A   Clear
5:53 PM 82.9 °F 21.0 °F 10% 30.02 in 10.0 mi North 19.6 mph 27.6 mph N/A   Clear
6:53 PM 79.0 °F 25.0 °F 14% 30.03 in 10.0 mi North 13.8 mph - N/A   Clear
7:53 PM 77.0 °F 25.0 °F 15% 30.05 in 10.0 mi North 12.7 mph - N/A   Clear
8:53 PM 75.9 °F 24.1 °F 15% 30.06 in 10.0 mi North 13.8 mph 19.6 mph N/A   Clear
9:53 PM 75.9 °F 23.0 °F 14% 30.06 in 10.0 mi North 15.0 mph 23.0 mph N/A   Clear
10:53 PM 71.1 °F 25.0 °F 18% 30.09 in 10.0 mi WSW 6.9 mph - N/A   Clear
11:53 PM 73.9 °F 23.0 °F 15% 30.11 in 10.0 mi North 5.8 mph - N/A   Clear